Change the Weather History Date:

Tuesday, March 12, 2013

  Actual Average (KPVU) Record (KPVU)
Temperature  
Mean Temperature 44 °F -  
Max Temperature 55 °F 49 °F 70 °F (1989)
Min Temperature 32 °F 29 °F 20 °F (1988)
Degree Days  
Heating Degree Days 22    
Moisture  
Dew Point 31 °F    
Average Humidity 67    
Maximum Humidity 93    
Minimum Humidity 38    
Precipitation  
Precipitation 0.00 in - - ()
Sea Level Pressure  
Sea Level Pressure 30.26 in    
Wind  
Wind Speed 2 mph (SW)    
Max Wind Speed 16 mph    
Max Gust Speed 18 mph    
Visibility 10 miles    
Events      
Averages and records for this station are not official NWS values.
T = Trace of Precipitation, MM = Missing Value Source: NWS Daily Summary

Daily Weather History Graph

Daily Weather History Graph

Search for Another Location

Airport or City:

Trip Planner

Search our weather history database for the weather conditions in past years. The results will help you decide how hot, cold, wet, or windy it might be!

Date:

Astronomy

Mar. 12, 2013 Rise Set
Actual Time 7:41 AM MDT 7:29 PM MDT
Civil Twilight 7:14 AM MDT 7:56 PM MDT
Nautical Twilight 6:42 AM MDT 8:28 PM MDT
Astronomical Twilight 6:10 AM MDT 9:00 PM MDT
Moon 7:49 AM MDT (3/12) 8:49 PM MDT (3/12)
Length of Visible Light 12h 42m
Length of Day
11h 48m
New Moon, 1% of the Moon is Illuminated
Mar 12
New Moon
Mar 19
First Quarter
Mar 27
Full
Apr 2
Last Quarter
Apr 10
New

Hourly Weather History & Observations

Time (MDT) Temp. Windchill Dew Point Humidity Pressure Visibility Wind Dir Wind Speed Gust Speed Precip Events Conditions
12:15 AM 37.4 °F - 30.2 °F 75% 30.19 in 10.0 mi Calm Calm - N/A   Overcast
12:35 AM 35.6 °F - 30.2 °F 81% 30.19 in 10.0 mi Calm Calm - N/A   Overcast
12:55 AM 35.6 °F - 30.2 °F 81% 30.19 in 10.0 mi Calm Calm - N/A   Overcast
1:15 AM 35.6 °F - 30.2 °F 81% 30.19 in 10.0 mi Calm Calm - N/A   Overcast
1:55 AM 35.6 °F 31.7 °F 32.0 °F 87% 30.20 in 10.0 mi ESE 4.6 mph - N/A   Overcast
2:15 AM 37.4 °F - 30.2 °F 75% 30.20 in 10.0 mi Calm Calm - N/A   Overcast
2:35 AM 35.6 °F - 30.2 °F 81% 30.21 in 10.0 mi Calm Calm - N/A   Overcast
3:15 AM 37.4 °F - 30.2 °F 75% 30.22 in 10.0 mi Calm Calm - N/A   Overcast
3:35 AM 35.6 °F - 32.0 °F 87% 30.22 in 10.0 mi Calm Calm - N/A   Overcast
3:55 AM 35.6 °F - 32.0 °F 87% 30.22 in 10.0 mi Calm Calm - N/A   Overcast
4:15 AM 35.6 °F - 32.0 °F 87% 30.21 in 10.0 mi Calm Calm - N/A   Overcast
4:35 AM 35.6 °F - 32.0 °F 87% 30.21 in 10.0 mi Calm Calm - N/A   Overcast
4:55 AM 35.6 °F - 32.0 °F 87% 30.21 in 10.0 mi Calm Calm - N/A   Overcast
5:15 AM 35.6 °F - 32.0 °F 87% 30.21 in 10.0 mi Calm Calm - N/A   Overcast
5:35 AM 35.6 °F - 32.0 °F 87% 30.22 in 10.0 mi Calm Calm - N/A   Overcast
5:55 AM 35.6 °F 32.8 °F 32.0 °F 87% 30.23 in 10.0 mi SSE 3.5 mph - N/A   Overcast
6:15 AM 35.6 °F - 32.0 °F 87% 30.24 in 10.0 mi Calm Calm - N/A   Overcast
6:35 AM 35.6 °F - 32.0 °F 87% 30.25 in 10.0 mi Calm Calm - N/A   Overcast
6:55 AM 35.6 °F - 32.0 °F 87% 30.25 in 10.0 mi Calm Calm - N/A   Overcast
7:15 AM 33.8 °F - 32.0 °F 93% 30.25 in 10.0 mi Calm Calm - N/A   Overcast
7:35 AM 33.8 °F - 32.0 °F 93% 30.25 in 10.0 mi Calm Calm - N/A   Overcast
7:55 AM 32.0 °F 27.5 °F 30.2 °F 93% 30.25 in 10.0 mi East 4.6 mph - N/A   Mostly Cloudy
8:15 AM 32.0 °F - 30.2 °F 93% 30.25 in 10.0 mi Calm Calm - N/A   Clear
8:35 AM 32.0 °F - 30.2 °F 93% 30.26 in 10.0 mi Calm Calm - N/A   Clear
8:55 AM 33.8 °F - 32.0 °F 93% 30.26 in 10.0 mi Calm Calm - N/A   Scattered Clouds
9:15 AM 35.6 °F - 32.0 °F 87% 30.27 in 10.0 mi Calm Calm - N/A   Clear
9:35 AM 37.4 °F - 32.0 °F 81% 30.28 in 10.0 mi Calm Calm - N/A   Clear
9:55 AM 41.0 °F - 32.0 °F 70% 30.28 in 10.0 mi Calm Calm - N/A   Clear
10:15 AM 42.8 °F - 32.0 °F 66% 30.28 in 10.0 mi Calm Calm - N/A   Clear
10:35 AM 42.8 °F - 32.0 °F 66% 30.28 in 10.0 mi Calm Calm - N/A   Clear
10:55 AM 44.6 °F - 32.0 °F 61% 30.29 in 10.0 mi Calm Calm - N/A   Clear
11:15 AM 44.6 °F - 32.0 °F 61% 30.29 in 10.0 mi Calm Calm - N/A   Clear
11:35 AM 46.4 °F - 30.2 °F 53% 30.30 in 10.0 mi Calm Calm - N/A   Clear
11:55 AM 48.2 °F - 32.0 °F 54% 30.30 in 10.0 mi Calm Calm - N/A   Clear
12:15 PM 50.0 °F - 30.2 °F 47% 30.30 in 10.0 mi West 4.6 mph - N/A   Clear
12:35 PM 50.0 °F - 30.2 °F 47% 30.30 in 10.0 mi East 3.5 mph - N/A   Clear
12:55 PM 50.0 °F - 30.2 °F 47% 30.30 in 10.0 mi Calm Calm - N/A   Clear
1:15 PM 51.8 °F - 30.2 °F 44% 30.29 in 10.0 mi Calm Calm - N/A   Scattered Clouds
1:35 PM 51.8 °F - 30.2 °F 44% 30.28 in 10.0 mi Calm Calm - N/A   Scattered Clouds
1:55 PM 50.0 °F - 30.2 °F 47% 30.28 in 10.0 mi North 3.5 mph - N/A   Clear
2:15 PM 51.8 °F - 30.2 °F 44% 30.28 in 10.0 mi SSW 5.8 mph - N/A   Scattered Clouds
2:35 PM 51.8 °F - 30.2 °F 44% 30.26 in 10.0 mi SSE 3.5 mph - N/A   Mostly Cloudy
2:55 PM 53.6 °F - 28.4 °F 38% 30.25 in 10.0 mi NNW 3.5 mph - N/A   Scattered Clouds
3:15 PM 53.6 °F - 30.2 °F 41% 30.24 in 10.0 mi SW 4.6 mph - N/A   Scattered Clouds
3:35 PM 53.6 °F - 30.2 °F 41% 30.24 in 10.0 mi WSW 8.1 mph - N/A   Scattered Clouds
3:55 PM 55.4 °F - 30.2 °F 38% 30.25 in 10.0 mi SW 11.5 mph - N/A   Scattered Clouds
4:15 PM 55.4 °F - 30.2 °F 38% 30.24 in 10.0 mi SW 5.8 mph - N/A   Scattered Clouds
4:35 PM 55.4 °F - 30.2 °F 38% 30.24 in 10.0 mi WSW 9.2 mph - N/A   Clear
4:55 PM 55.4 °F - 30.2 °F 38% 30.24 in 10.0 mi WSW 12.7 mph - N/A   Clear
5:15 PM 53.6 °F - 30.2 °F 41% 30.24 in 10.0 mi WSW 10.4 mph 17.3 mph N/A   Clear
5:35 PM 53.6 °F - 30.2 °F 41% 30.25 in 10.0 mi WSW 16.1 mph - N/A   Mostly Cloudy
5:55 PM 53.6 °F - 30.2 °F 41% 30.25 in 10.0 mi SW 12.7 mph 18.4 mph N/A   Mostly Cloudy
6:15 PM 51.8 °F - 30.2 °F 44% 30.25 in 10.0 mi SW 11.5 mph - N/A   Scattered Clouds
6:35 PM 50.0 °F - 30.2 °F 47% 30.25 in 10.0 mi SW 10.4 mph - N/A   Clear
6:55 PM 50.0 °F - 30.2 °F 47% 30.25 in 10.0 mi SW 10.4 mph - N/A   Clear
7:15 PM 48.2 °F - 30.2 °F 50% 30.25 in 10.0 mi SW 9.2 mph - N/A   Clear
7:35 PM 46.4 °F 41.5 °F 30.2 °F 53% 30.26 in 10.0 mi SW 10.4 mph - N/A   Clear
7:55 PM 44.6 °F 41.4 °F 30.2 °F 57% 30.27 in 10.0 mi West 5.8 mph - N/A   Clear
8:15 PM 44.6 °F 43.1 °F 30.2 °F 57% 30.27 in 10.0 mi West 3.5 mph - N/A   Clear
8:35 PM 44.6 °F - 30.2 °F 57% 30.27 in 10.0 mi Calm Calm - N/A   Clear
8:55 PM 42.8 °F - 30.2 °F 61% 30.28 in 10.0 mi Calm Calm - N/A   Clear
9:15 PM 41.0 °F - 30.2 °F 65% 30.28 in 10.0 mi Calm Calm - N/A   Clear
9:35 PM 37.4 °F 34.9 °F 30.2 °F 75% 30.29 in 10.0 mi ESE 3.5 mph - N/A   Clear
9:55 PM 35.6 °F 32.8 °F 30.2 °F 81% 30.30 in 10.0 mi East 3.5 mph - N/A   Clear
10:15 PM 32.0 °F - 28.4 °F 87% 30.31 in 10.0 mi Calm Calm - N/A   Clear
10:35 PM 32.0 °F - 28.4 °F 87% 30.31 in 10.0 mi Calm Calm - N/A   Clear
10:55 PM 32.0 °F - 28.4 °F 87% 30.32 in 10.0 mi Calm Calm - N/A   Clear
11:15 PM 32.0 °F - 28.4 °F 87% 30.31 in 10.0 mi Calm Calm - N/A   Clear
11:55 PM 33.8 °F - 28.4 °F 81% 30.32 in 10.0 mi Calm Calm - N/A   Clear